Location: Bogotá
(4.6533°N, 74.0837°W)
Time: 15:06:37
(UTC+00:00)

ISS - Pass Details

Date: 08 July 2025
Orbit: 413 x 417 km, 51.6° (Epoch: 13 July)

Event Time Altitude Azimuth Distance (km) Brightness Sun altitude
Rises 10:24:05 0° 341° (NNW) 2,341 0.1 -6.8°
Reaches altitude 10° 10:26:23 10° 354° (N) 1,481 -0.7 -6.3°
Maximum altitude 10:29:14 26° 54° (NE) 844 -1.1 -5.6°
Drops below altitude 10° 10:32:07 10° 113° (ESE) 1,485 -0.3 -5.0°
Sets 10:34:24 0° 126° (SE) 2,348 0.5 -4.5°
